Flag for U.S.A. Weather past 2 weeks in Pomona, California, U.S.A.

Now
46 °F

Fog.


Feels Like: 46 °F
Forecast: 48 / 73 °F
Wind: No wind

Location: Chino Airport

Current Time: Feb 1, 2015 at 6:51:47 AM

Latest Report: Feb 1, 2015 at 5:53 AM


Visibility: 6 mi

Pressure: 30.06 "Hg

Humidity: 86%

Dew point: 42 °F

Location of PomonaLocation

Historic Weather in Pomona — Graph

°F

Pomona temperature yesterday

Maximum temperature yesterday: 69 °F (at 2:53 PM)
Minimum temperature yesterday: 51 °F (at 6:53 AM)
Average temperature yesterday: 58 °F

Past Weeks' High & Low Weather Summary

 TemperatureHumidityPressure
High81 °F (Jan 25, 12:53 PM)100% (Jan 20, 12:53 AM)30.27 "Hg (Jan 20, 12:53 AM)
Low39 °F (Jan 23, 3:53 AM)11% (Jan 23, 2:53 PM)29.84 "Hg (Jan 30, 2:53 PM)
Average60 °F57%30.07 "Hg
* Reported Jan 17 5:53 AM — Feb 1 5:53 AM, Pomona, Weather by CustomWeather, © 2014

Note: Actual official high and low records may vary slightly from our data, if they occured in-between our weather recording intervals... More about our weather records

Advertising

Pomona weather history for previous 24 hours

 ConditionsComfort  
Time TempWeatherWind HumidityBarometerVisibility
5:53 AM
Feb 1
46 °FFog.No wind86%30.06 "Hg6 mi
4:53 AM47 °FFog.3 mph93%30.04 "Hg5 mi
3:53 AM47 °FFog.No wind86%30.03 "Hg6 mi
2:53 AM51 °FClear.No wind83%30.03 "Hg6 mi
1:53 AM53 °FClear.N/A77%30.02 "Hg7 mi
12:53 AM53 °FClear.3 mph80%30.02 "Hg7 mi
11:53 PM
Jan 31
55 °FClear.No wind80%30.00 "Hg5 mi
10:53 PM52 °FFog.No wind86%29.99 "Hg5 mi
9:53 PM54 °FClear.No wind83%29.99 "Hg5 mi
8:53 PM52 °FFog.8 mph86%29.98 "Hg6 mi
7:53 PM59 °FHaze.3 mph78%29.96 "Hg6 mi
6:53 PM58 °FPassing clouds.9 mph78%29.95 "Hg10 mi
5:53 PM62 °FPassing clouds.5 mph67%29.91 "Hg10 mi
4:53 PM68 °FScattered clouds.No wind44%29.89 "Hg10 mi
3:53 PM69 °FScattered clouds.6 mph42%29.88 "Hg10 mi
2:53 PM69 °FScattered clouds.9 mph36%29.87 "Hg10 mi
1:53 PM68 °FScattered clouds.7 mph38%29.87 "Hg10 mi
12:53 PM66 °FBroken clouds.12 mph43%29.88 "Hg10 mi
11:53 AM67 °FPartly sunny.7 mph49%29.90 "Hg7 mi
10:53 AM63 °FScattered clouds.5 mph68%29.93 "Hg7 mi
9:53 AM61 °FScattered clouds.No wind75%29.93 "Hg6 mi
8:53 AM56 °FFog.No wind87%29.92 "Hg6 mi
7:53 AM52 °FFog.No wind97%29.89 "Hg6 mi
6:53 AM51 °FFog.No wind92%29.88 "Hg6 mi
Weather by CustomWeather, © 2014

See weather overviewHow to use our weather pages